TimeCST,TemperatureF,Dew PointF,Humidity,Sea Level PressureIn,VisibilityMPH,Wind Direction,Wind SpeedMPH,Gust SpeedMPH,PrecipitationIn,Events,Conditions,WindDirDegrees,DateUTC
12:53 AM,34.0,28.9,82,30.21,10.0,Calm,Calm,-,N/A,,Clear,0,2013-02-20 06:53:00
1:53 AM,34.0,30.0,85,30.21,10.0,Calm,Calm,-,N/A,,Clear,0,2013-02-20 07:53:00
2:53 AM,35.1,28.9,78,30.22,10.0,NNW,4.6,-,N/A,,Clear,330,2013-02-20 08:53:00
3:53 AM,37.9,26.1,62,30.21,10.0,North,4.6,-,N/A,,Clear,360,2013-02-20 09:53:00
4:53 AM,37.0,26.1,65,30.22,10.0,NNW,4.6,-,N/A,,Clear,340,2013-02-20 10:53:00
5:53 AM,32.0,26.1,79,30.23,10.0,Calm,Calm,-,N/A,,Clear,0,2013-02-20 11:53:00
7:53 AM,42.1,25.0,51,30.23,10.0,NE,8.1,-,N/A,,Clear,50,2013-02-20 13:53:00
8:53 AM,46.9,21.9,37,30.24,10.0,NE,6.9,16.1,N/A,,Clear,40,2013-02-20 14:53:00
9:53 AM,48.9,19.0,31,30.25,10.0,ENE,8.1,-,N/A,,Clear,70,2013-02-20 15:53:00
10:53 AM,51.1,19.0,28,30.26,10.0,North,4.6,-,N/A,,Clear,350,2013-02-20 16:53:00
11:53 AM,54.0,19.9,26,30.22,10.0,Variable,6.9,-,N/A,,Clear,0,2013-02-20 17:53:00
12:53 PM,57.0,19.0,23,30.19,10.0,Variable,3.5,-,N/A,,Clear,0,2013-02-20 18:53:00
1:53 PM,57.9,19.0,22,30.16,10.0,NNE,4.6,-,N/A,,Clear,30,2013-02-20 19:53:00
2:53 PM,60.1,21.0,22,30.14,10.0,Variable,4.6,-,N/A,,Clear,0,2013-02-20 20:53:00
3:53 PM,59.0,21.9,24,30.15,10.0,Calm,Calm,-,N/A,,Clear,0,2013-02-20 21:53:00
4:53 PM,59.0,25.0,27,30.14,10.0,Calm,Calm,-,N/A,,Clear,0,2013-02-20 22:53:00
5:53 PM,50.0,35.1,57,30.14,10.0,Calm,Calm,-,N/A,,Clear,0,2013-02-20 23:53:00
6:53 PM,44.1,36.0,73,30.15,10.0,Calm,Calm,-,N/A,,Clear,0,2013-02-21 00:53:00
7:53 PM,42.1,35.1,76,30.15,10.0,Calm,Calm,-,N/A,,Clear,0,2013-02-21 01:53:00
8:53 PM,39.0,34.0,82,30.16,10.0,Calm,Calm,-,N/A,,Clear,0,2013-02-21 02:53:00
10:53 PM,35.1,30.9,85,30.15,10.0,Calm,Calm,-,N/A,,Clear,0,2013-02-21 04:53:00
11:53 PM,35.1,30.9,85,30.12,10.0,Calm,Calm,-,N/A,,Clear,0,2013-02-21 05:53:00